Home   Weather   Pratteln   Past weeks

Flag for Switzerland Past Weather in Pratteln, Basel-Land, Switzerland — Yesterday and Last 2 Weeks

54 °F

Passing clouds.

Feels Like: 53 °F
Forecast: 34 / 51 °F
Wind: 3 mph from North

Location: Bale-Mulhouse

Current Time: Oct 22, 2016 at 6:12:19 PM

Latest Report: Oct 22, 2016 at 5:30 PM

Visibility: N/A

Pressure: 29.92 "Hg

Humidity: 54%

Dew Point: 37 °F

Location of PrattelnLocation

Past Weather in Pratteln — Graph


Pratteln Temperature Yesterday

Maximum temperature yesterday: 52 °F (at 1:00 PM)
Minimum temperature yesterday: 41 °F (at 11:41 PM)
Average temperature yesterday: 48 °F

High & Low Weather Summary for the Past Weeks

High66 °F (Oct 15, 5:30 PM)100% (Oct 8, 11:00 PM)30.27 "Hg (Oct 8, 11:00 PM)
Low30 °F (Oct 13, 2:00 AM)51% (Oct 12, 5:00 PM)29.62 "Hg (Oct 14, 5:30 PM)
Average48 °F85%30.06 "Hg
* Reported Oct 7 5:00 PM — Oct 22 5:00 PM, Pratteln, Weather by CustomWeather, © 2016

Note: Actual official high and low records may vary slightly from our data, if they occured in-between our weather recording intervals... More about our weather records


Pratteln Weather History for the Previous 24 Hours

Scroll right to see more
Time TempWeatherWind HumidityBarometerVisibility
5:00 PM
Sat, Oct 22
54 °FPassing clouds.2 mph54%29.92 "HgN/A
4:30 PM55 °FPassing clouds.3 mph51%29.95 "HgN/A
4:00 PM54 °FPassing clouds.2 mph51%29.95 "HgN/A
3:30 PM54 °FPassing clouds.1 mph51%29.95 "HgN/A
3:00 PM54 °FPassing clouds.3 mph54%29.95 "HgN/A
2:30 PM54 °FScattered clouds.3 mph58%29.95 "HgN/A
2:00 PM54 °FScattered clouds.2 mph54%29.98 "HgN/A
1:30 PM54 °FPassing clouds.2 mph54%29.98 "HgN/A
1:00 PM52 °FPassing clouds.2 mph62%29.98 "HgN/A
12:30 PM52 °FPassing clouds.2 mph62%29.98 "HgN/A
12:00 PM48 °FScattered clouds.3 mph71%29.98 "HgN/A
11:30 AM46 °FPartly sunny.3 mph76%29.98 "HgN/A
11:00 AM45 °FPartly sunny.6 mph81%30.01 "HgN/A
10:30 AM43 °FScattered clouds.6 mph87%30.01 "HgN/A
10:00 AM39 °FFog.3 mph100%30.01 "HgN/A
9:30 AM37 °FFog.3 mph100%30.01 "Hg3 mi
9:00 AM36 °FSleet. Cloudy.3 mph100%30.01 "Hg1 mi
8:30 AM34 °FPartly sunny.5 mph100%30.01 "Hg1 mi
8:00 AM34 °FFog.6 mph100%30.01 "Hg1 mi
7:30 AM32 °FFog.1 mph93%30.01 "Hg5 mi
7:00 AM32 °FPassing clouds.3 mph93%30.01 "Hg4 mi
6:30 AM34 °FClear.2 mph93%30.01 "Hg4 mi
6:00 AM34 °FPassing clouds.2 mph93%30.01 "Hg4 mi
5:30 AM34 °FPassing clouds.5 mph100%30.01 "Hg4 mi
5:00 AM36 °FClear.5 mph93%30.01 "Hg4 mi
4:30 AM36 °FClear.3 mph93%30.01 "Hg4 mi
4:00 AM36 °FClear.5 mph100%30.01 "Hg6 mi
3:30 AM36 °FClear.3 mph93%30.01 "Hg6 mi
3:00 AM36 °FPassing clouds.2 mph93%30.01 "Hg6 mi
2:30 AM37 °FPassing clouds.2 mph100%30.01 "HgN/A
2:00 AM37 °FOvercast.2 mph93%30.01 "HgN/A
1:30 AM37 °FPassing clouds.No wind87%30.01 "HgN/A
1:00 AM39 °FPassing clouds.6 mph87%30.01 "HgN/A
12:30 AM39 °FPassing clouds.2 mph87%30.04 "HgN/A
12:00 AM39 °FPassing clouds.3 mph93%30.04 "HgN/A
11:41 PM
Fri, Oct 21
41 °FPassing clouds.5 mph87%30.04 "HgN/A
11:00 PM43 °FPassing clouds.5 mph87%30.04 "HgN/A
10:30 PM45 °FPassing clouds.3 mph87%30.04 "HgN/A
10:00 PM45 °FClear.1 mph87%30.04 "Hg10 mi
9:30 PM45 °FClear.3 mph81%30.04 "Hg10 mi
9:00 PM45 °FPassing clouds.3 mph87%30.04 "HgN/A
8:30 PM45 °FPassing clouds.2 mph87%30.04 "HgN/A
8:00 PM45 °FPassing clouds.2 mph93%30.04 "HgN/A
7:30 PM46 °FPassing clouds.2 mph87%30.04 "HgN/A
7:00 PM46 °FPartly cloudy.2 mph87%30.04 "HgN/A
6:41 PM46 °FPassing clouds.3 mph87%30.01 "HgN/A
6:00 PM48 °FBroken clouds.3 mph82%30.01 "HgN/A
Weather by CustomWeather, © 2016

See weather overviewHow to use our weather pages